Salina, KS

9:08 PM CST on November 23, 2017 (GMT -0600)
Salina Municipal

Weather History for KSLN - September, 2013

Change the Weather History Date:

Saturday, September 28, 2013

  Actual Average Record
Temperature  
Mean Temperature 63 °F 64 °F  
Max Temperature 78 °F 76 °F 107 °F (1953)
Min Temperature 47 °F 53 °F 32 °F (1896)
Degree Days  
Heating Degree Days 2 4  
Month to date heating degree days 5 41  
Since 1 July heating degree days 8 42  
Cooling Degree Days 0 3  
Month to date cooling degree days 300 198  
Year to date cooling degree days 1694 1605  
Growing Degree Days 15 (Base 50)    
Moisture  
Dew Point 52 °F    
Average Humidity 59    
Maximum Humidity 83    
Minimum Humidity 35    
Precipitation  
Precipitation 0.42 in 0.09 in 3.05 in (1945)
Month to date precipitation 1.63 2.52  
Year to date precipitation 27.87 26.86  
Sea Level Pressure  
Sea Level Pressure 29.91 in    
Wind  
Wind Speed 13 mph (WNW)    
Max Wind Speed 25 mph    
Max Gust Speed 35 mph    
Visibility 9 miles    
Events Rain , Thunderstorm    
T = Trace of Precipitation, MM = Missing Value Source: NWS Daily Summary

Daily Weather History Graph

Daily Weather History Graph

Search for Another Location

Airport or City:

Trip Planner

Search our weather history database for the weather conditions in past years. The results will help you decide how hot, cold, wet, or windy it might be!

Date:

Astronomy

Sep. 28, 2013 Rise Set
Actual Time 7:24 AM CDT 7:17 PM CDT
Civil Twilight 6:57 AM CDT 7:44 PM CDT
Nautical Twilight 6:26 AM CDT 8:14 PM CDT
Astronomical Twilight 5:55 AM CDT 8:46 PM CDT
Moon 1:15 AM CDT (9/28) 3:34 PM CDT (9/28)
Length of Visible Light 12h 46m
Length of Day
11h 53m
Waning Crescent, 36% of the Moon is Illuminated
Sep 28
Waning Crescent
Oct 4
New
Oct 11
First Quarter
Oct 18
Full
Oct 26
Last Quarter

Hourly Weather History & Observations

Time (CDT) Temp. Dew Point Humidity Pressure Visibility Wind Dir Wind Speed Gust Speed Precip Events Conditions
12:53 AM 75.9 °F 57.9 °F 54% 29.69 in 10.0 mi SSE 17.3 mph - 0.00 in Rain Light Rain
1:10 AM 75.2 °F 57.2 °F 53% 29.73 in 10.0 mi SSE 13.8 mph - N/A Thunderstorm Mostly Cloudy
1:48 AM 78.8 °F 60.8 °F 54% 29.72 in 10.0 mi South 18.4 mph 27.6 mph N/A   Scattered Clouds
1:53 AM 78.1 °F 61.0 °F 56% 29.67 in 10.0 mi South 20.7 mph 28.8 mph N/A   Scattered Clouds
2:53 AM 75.9 °F 66.9 °F 74% 29.71 in 9.0 mi SSW 23.0 mph 34.5 mph 0.00 in Rain Light Rain
3:34 AM 69.8 °F 66.2 °F 88% 29.78 in 5.0 mi WSW 19.6 mph 28.8 mph 0.07 in Rain , Thunderstorm Rain
3:40 AM 69.8 °F 64.4 °F 83% 29.78 in 1.8 mi WSW 20.7 mph 28.8 mph 0.23 in Rain , Thunderstorm Heavy Rain
3:48 AM 68.0 °F 64.4 °F 88% 29.78 in 1.8 mi West 11.5 mph 27.6 mph 0.30 in Rain , Thunderstorm Heavy Thunderstorms and Rain
3:50 AM 68.0 °F 64.4 °F 88% 29.78 in 2.5 mi West 16.1 mph - 0.31 in Rain , Thunderstorm Thunderstorms and Rain
3:53 AM 68.0 °F 64.9 °F 90% 29.74 in 4.0 mi West 11.5 mph - 0.31 in Rain , Thunderstorm Light Thunderstorms and Rain
4:04 AM 66.2 °F 62.6 °F 88% 29.78 in 5.0 mi WNW 21.9 mph 27.6 mph 0.04 in Rain Heavy Rain
4:53 AM 57.9 °F 54.0 °F 87% 29.80 in 10.0 mi NW 21.9 mph 32.2 mph 0.05 in   Overcast
5:31 AM 55.4 °F 53.6 °F 94% 29.87 in 10.0 mi NW 17.3 mph 25.3 mph 0.01 in Rain Light Rain
5:46 AM 55.4 °F 53.6 °F 94% 29.88 in 10.0 mi NW 18.4 mph - 0.01 in Rain Light Rain
5:53 AM 55.9 °F 53.1 °F 90% 29.86 in 10.0 mi NW 16.1 mph 23.0 mph 0.01 in Rain Light Rain
6:22 AM 55.4 °F 51.8 °F 88% 29.89 in 8.0 mi NW 16.1 mph 26.5 mph 0.04 in Rain Rain
6:53 AM 55.0 °F 51.1 °F 86% 29.87 in 10.0 mi NW 17.3 mph - 0.05 in   Partly Cloudy
7:53 AM 55.0 °F 50.0 °F 83% 29.94 in 10.0 mi NW 16.1 mph - N/A   Partly Cloudy
8:53 AM 55.0 °F 48.9 °F 80% 29.97 in 10.0 mi NW 18.4 mph - N/A   Clear
9:53 AM 57.9 °F 48.0 °F 70% 29.99 in 10.0 mi NW 16.1 mph - N/A   Clear
10:53 AM 61.0 °F 48.0 °F 62% 30.02 in 10.0 mi NNW 16.1 mph - N/A   Clear
11:53 AM 63.0 °F 46.9 °F 56% 30.04 in 10.0 mi NW 13.8 mph - N/A   Clear
12:53 PM 63.0 °F 44.1 °F 50% 30.04 in 10.0 mi NW 13.8 mph - N/A   Clear
1:53 PM 70.0 °F 44.1 °F 39% 30.01 in 10.0 mi NW 18.4 mph 21.9 mph N/A   Clear
2:53 PM 71.1 °F 44.1 °F 38% 30.00 in 10.0 mi NW 15.0 mph - N/A   Clear
3:53 PM 71.1 °F 42.1 °F 35% 30.01 in 10.0 mi NW 18.4 mph 25.3 mph N/A   Clear
4:53 PM 71.1 °F 42.1 °F 35% 30.02 in 10.0 mi NW 13.8 mph - N/A   Clear
5:53 PM 70.0 °F 42.1 °F 36% 30.04 in 10.0 mi NNW 16.1 mph - N/A   Clear
6:53 PM 66.0 °F 45.0 °F 47% 30.05 in 10.0 mi NW 8.1 mph - N/A   Clear
7:53 PM 60.1 °F 46.0 °F 60% 30.06 in 10.0 mi WNW 6.9 mph - N/A   Clear
8:53 PM 57.9 °F 45.0 °F 62% 30.08 in 10.0 mi West 6.9 mph - N/A   Clear
9:53 PM 55.9 °F 43.0 °F 62% 30.09 in 10.0 mi Calm Calm - N/A   Clear
10:53 PM 52.0 °F 45.0 °F 77% 30.11 in 10.0 mi Calm Calm - N/A   Clear
11:53 PM 52.0 °F 46.0 °F 80% 30.11 in 10.0 mi Calm Calm - N/A   Clear